Terminal Aerodrome Forecast
Issued by NWS Quad Cities IA IL

Home | Current Version | Previous Version | Text Only | Print | Product List | Glossary On
Versions: 1 2 3 4 5 6 7 8 9 10 11 12 13 14 15 16 17 18 19 20 21 22 23
000
FTUS43 KDVN 250200 AAA
TAFMLI
TAF AMD
KMLI 250241Z 2503/2524 27020G28KT P6SM -SHSN OVC022
      TEMPO 2504/2507 5SM -SHSN BKN018
     FM250700 28012KT P6SM OVC025
     FM251500 28008KT P6SM SCT025=

USA.gov is the U.S. government's official web portal to all federal, state and local government web resources and services.